Theta_e
334 334 334 334 335 334 333 332 331 330 329 328 326 326 327 327 325 323 321 320 320 320 321 321 321 320 318 317 317 317 316 315 314 314 313 311 310 309 309 309 308 308 308 307 307 306 306 306 306 306 306 306 306 306 306 306 306 306 306 306 307 307 307 308 309 309 309 308 307 307 306 306 306 305 305 305 304 304 304 304 304 304 304 304 303
334 333 334 333 333 332 330 329 329 329 329 327 326 326 326 325 323 321 320 320 320 320 320 320 320 319 317 317 316 316 315 314 313 313 311 310 309 309 308 308 308 307 307 307 306 306 306 306 306 306 306 306 306 306 306 306 306 306 306 306 307 307 306 307 308 308 309 308 307 306 306 306 305 305 304 304 304 304 304 304 304 304 304 303 303
332 332 332 332 331 331 328 327 327 327 326 326 325 324 323 322 321 320 319 319 319 320 319 319 319 318 316 316 316 315 314 313 312 311 310 309 308 308 308 308 307 306 306 306 306 306 306 306 306 306 306 306 305 305 306 305 305 305 306 306 307 307 306 306 307 308 308 308 306 306 306 305 305 304 304 303 304 304 304 303 303 304 304 303 303
331 331 331 330 331 330 328 327 326 326 325 324 322 321 320 320 319 319 319 318 318 318 318 318 318 316 316 315 315 314 313 312 311 309 308 308 308 307 307 307 307 306 306 306 306 306 306 306 306 306 306 306 305 305 305 305 305 306 306 306 307 307 306 306 306 307 307 307 306 306 305 305 304 304 303 303 303 303 303 303 303 303 303 303 303
331 330 329 329 330 330 328 327 326 325 323 321 320 320 320 319 318 318 318 317 317 317 317 317 316 315 315 314 314 313 312 311 309 308 307 307 307 307 306 306 306 306 306 306 306 305 305 305 305 305 305 305 305 305 305 305 305 306 306 306 306 307 307 306 306 307 307 307 306 305 305 304 304 303 303 303 303 303 303 303 303 303 303 303 303
330 330 330 330 330 328 326 325 324 322 321 321 321 321 319 317 317 317 317 317 316 316 317 317 315 315 314 314 313 312 311 309 308 306 306 306 306 306 306 306 306 305 306 305 305 305 305 304 304 304 305 305 304 305 305 305 305 305 305 305 306 306 307 307 307 307 306 306 305 305 305 304 304 303 303 303 303 302 302 302 302 302 302 302 303
330 330 330 329 328 327 325 324 322 320 321 321 321 319 317 317 317 317 317 316 316 316 316 315 314 314 313 312 311 310 309 308 306 306 306 305 305 305 305 305 305 305 305 305 305 305 304 304 303 304 304 303 303 303 305 305 304 304 304 305 305 306 307 307 307 306 306 305 305 305 305 304 303 303 303 302 302 302 302 301 302 302 302 302 302
330 328 326 325 325 325 323 322 320 320 321 320 318 318 317 317 316 316 316 316 315 315 315 314 313 313 312 311 310 309 307 306 305 305 305 305 305 305 305 305 304 304 304 304 305 304 304 303 302 302 301 300 299 299 300 302 303 303 304 304 305 306 306 306 306 306 306 305 305 304 304 303 303 303 302 302 302 301 301 301 301 301 301 301 302
329 325 323 323 323 323 322 320 318 319 320 318 317 317 316 315 315 316 315 315 315 315 314 313 312 311 310 309 308 307 306 306 305 305 305 304 304 304 304 304 304 303 303 303 303 303 302 302 300 299 298 297 297 296 296 298 301 302 302 303 305 306 306 306 306 306 305 305 304 304 303 303 302 302 302 302 301 301 301 301 301 301 300 301 301
328 325 323 322 321 320 320 318 317 318 319 318 317 316 315 315 315 315 314 314 314 314 313 312 311 310 309 308 307 306 306 305 304 304 304 304 304 304 304 303 303 303 303 302 302 302 301 300 299 298 298 297 296 295 295 297 298 299 299 301 302 303 305 306 305 305 305 304 303 303 303 303 302 302 302 301 301 301 301 301 301 300 300 300 301
327 325 322 321 319 318 317 316 316 316 317 317 317 316 315 314 314 313 313 314 313 313 312 311 310 309 308 307 306 305 303 302 302 302 303 303 304 304 304 303 303 303 302 302 302 302 302 301 301 301 301 300 298 296 296 297 298 298 298 298 299 300 301 304 305 305 304 303 303 302 302 302 302 301 301 300 300 301 301 301 301 300 300 300 301
327 325 321 320 318 317 316 315 315 314 315 315 315 314 314 313 313 313 313 313 313 312 311 310 309 307 306 305 304 302 300 299 299 301 302 302 303 303 303 303 303 302 302 301 302 302 302 302 301 301 301 301 301 300 299 299 299 299 299 298 298 298 298 300 302 303 303 303 302 302 301 301 301 300 299 300 300 300 300 300 301 300 300 300 301
326 323 321 319 318 317 315 314 314 314 314 314 313 313 313 313 313 313 313 313 312 311 311 309 307 306 305 304 302 300 298 297 298 299 301 301 302 302 303 302 302 302 301 301 301 301 301 301 301 301 300 301 302 302 301 301 301 301 301 300 299 298 298 298 299 300 302 302 302 301 301 300 300 299 299 299 300 300 300 300 300 300 300 301 301
324 322 320 320 318 316 315 314 313 313 313 312 312 312 312 312 313 313 312 312 311 311 309 307 306 305 304 303 301 300 298 297 297 298 300 300 301 302 302 302 301 301 301 301 301 301 301 301 301 300 299 300 301 302 301 301 302 303 303 302 301 300 299 299 299 300 301 301 301 301 300 299 299 299 298 298 299 300 300 300 300 300 301 301 301
322 321 320 319 316 315 314 313 313 312 312 311 311 312 312 312 312 312 312 312 311 310 308 306 305 304 303 302 302 300 298 297 297 297 298 300 301 301 302 301 301 301 300 300 301 301 300 300 300 299 298 297 298 300 301 301 302 303 303 303 302 300 299 298 298 298 299 299 299 299 298 297 297 297 296 296 298 299 300 300 300 300 300 300 300
321 320 319 318 316 314 314 313 313 312 312 312 312 311 312 312 312 312 312 311 310 309 307 306 305 304 303 302 301 299 297 297 297 296 297 299 301 301 302 301 301 301 300 300 301 300 300 300 299 298 297 295 295 298 300 300 301 302 302 302 302 301 299 297 295 295 295 296 296 296 296 296 296 296 296 295 296 299 300 300 299 300 300 300 300
320 319 318 317 315 313 314 313 313 313 313 313 312 312 312 312 311 311 311 310 310 308 306 305 304 304 303 302 301 300 297 297 297 296 297 299 301 301 301 301 301 301 301 300 300 300 300 300 299 298 297 294 293 296 299 300 301 302 301 301 301 301 301 299 298 296 295 296 296 296 297 298 298 298 298 296 296 298 300 299 299 300 300 299 299
320 319 317 316 314 313 314 314 313 313 313 313 312 312 312 311 311 311 310 310 309 307 306 305 304 304 303 302 301 300 298 297 296 296 297 300 301 301 301 301 300 301 301 300 298 297 297 298 298 298 296 293 293 295 298 300 301 301 301 300 300 300 301 300 300 300 299 298 299 298 298 299 299 299 298 298 297 298 300 300 299 299 299 299 299
321 320 318 317 316 315 314 314 314 314 314 313 312 312 312 311 311 310 310 310 308 306 305 304 304 303 303 302 301 300 299 297 296 296 297 300 301 301 301 300 300 300 300 300 299 297 295 295 295 295 294 293 292 293 296 299 301 300 300 300 299 299 300 300 298 299 301 300 300 300 299 299 299 299 298 298 297 298 300 300 299 299 299 298 298
322 320 319 317 316 315 314 314 314 314 313 312 312 311 311 311 310 310 310 309 307 305 304 304 303 303 303 302 301 301 299 297 296 296 297 299 300 301 300 301 301 300 300 300 300 299 297 295 294 293 293 293 293 292 293 295 299 299 298 298 297 296 298 300 298 298 301 301 300 300 299 299 299 298 298 297 297 297 298 299 299 300 299 299 298
321 319 318 316 315 314 314 314 313 312 312 311 310 310 310 310 310 310 309 308 306 305 304 304 304 304 303 302 302 301 300 298 297 296 297 298 299 301 301 301 301 300 300 300 300 300 299 298 295 293 293 293 293 293 292 293 296 297 296 295 294 293 296 299 299 299 300 299 299 299 299 298 298 297 297 297 296 297 297 298 298 299 299 299 299
319 318 317 316 315 314 314 313 312 311 310 309 308 309 309 309 309 309 309 307 306 305 304 303 304 303 303 302 303 302 301 299 297 296 296 297 298 300 301 301 300 300 300 300 300 300 299 298 295 293 293 293 293 293 293 292 294 295 294 293 293 293 296 298 298 298 299 298 298 299 298 297 297 297 296 296 297 298 297 297 298 299 298 299 300
317 317 317 316 315 314 313 312 311 310 309 308 308 308 308 309 309 308 308 307 305 304 304 304 304 303 303 303 303 302 300 298 297 296 296 296 297 299 299 299 300 301 301 300 300 299 299 298 294 292 292 293 292 292 292 292 293 293 292 292 293 294 297 298 297 298 299 298 298 298 297 297 297 296 296 297 298 298 296 296 298 298 297 298 300
316 316 315 314 313 312 311 310 310 309 308 307 307 308 308 308 308 308 308 307 306 304 303 303 303 303 303 303 302 301 300 298 297 296 296 296 296 296 296 297 299 301 301 300 300 300 299 297 294 292 293 292 292 291 291 291 292 292 291 292 294 296 297 298 297 298 298 297 297 297 297 297 297 296 297 297 298 297 296 296 298 297 297 298 299
316 316 315 313 312 311 310 310 309 308 308 307 307 308 308 308 308 308 307 307 305 304 303 303 303 303 304 303 302 301 300 299 297 296 296 296 296 296 296 296 297 299 301 300 299 298 296 294 293 292 292 292 293 295 294 292 291 291 291 293 296 297 297 297 297 298 297 297 297 297 297 297 297 297 297 297 297 296 296 296 297 297 297 298 298
316 315 314 312 311 310 310 309 309 308 307 307 307 307 308 308 307 307 307 306 305 304 304 304 304 304 304 304 303 302 301 300 299 297 296 297 296 296 296 295 296 297 299 297 296 294 294 293 293 293 293 293 295 296 295 293 292 293 294 295 297 297 297 296 297 297 297 297 297 297 297 297 297 297 297 297 296 296 296 296 296 296 297 297 297
315 313 312 311 311 310 310 309 309 308 307 307 307 307 307 307 307 307 307 306 305 305 304 304 304 305 305 304 303 303 302 301 300 298 297 298 297 296 297 296 295 296 297 296 295 295 294 293 293 294 294 294 294 295 295 295 295 296 296 297 297 296 295 295 296 297 297 297 297 297 296 296 297 297 297 296 296 296 296 296 296 297 297 297 297
313 312 311 310 310 309 308 308 308 308 307 306 306 307 307 307 307 307 306 306 306 305 305 305 305 305 305 304 304 303 302 301 300 299 298 299 298 298 298 298 297 298 298 298 298 297 295 294 295 296 296 296 296 297 297 297 297 297 297 297 297 296 296 296 297 297 296 296 296 297 296 296 297 297 297 297 296 296 296 296 297 297 297 297 297
312 311 310 310 309 308 307 307 308 307 307 306 306 307 306 306 307 307 306 306 307 306 305 305 305 304 304 304 303 303 302 301 301 299 299 299 299 299 299 299 299 300 300 298 298 298 297 297 298 298 298 298 298 298 298 297 297 297 297 296 296 297 297 297 297 296 295 296 297 296 297 297 297 297 297 297 297 297 297 297 297 297 297 297 296
312 311 311 310 309 308 307 307 308 307 307 307 306 305 305 305 306 306 306 306 306 306 305 305 305 304 304 303 302 302 302 301 300 299 298 298 298 299 299 299 299 300 298 296 297 299 299 299 299 298 298 298 298 298 298 297 297 297 297 297 297 296 296 297 297 296 296 296 297 297 297 297 297 297 298 297 297 298 298 297 297 297 297 297 297
312 312 312 310 308 308 308 307 308 308 307 307 305 304 303 304 304 305 305 305 305 305 305 304 304 303 303 303 302 301 301 300 299 298 297 297 297 298 298 297 297 297 296 295 297 298 298 298 298 298 298 298 297 297 297 297 297 297 297 297 297 297 297 297 297 297 297 297 297 297 297 298 298 298 298 297 298 298 298 298 298 298 298 298 298
312 313 313 310 308 308 308 308 308 308 307 305 303 303 303 303 303 303 303 304 304 304 304 303 303 302 302 302 301 300 300 299 298 297 296 296 297 296 296 296 296 296 295 295 297 298 298 298 298 298 298 298 297 297 297 298 298 297 297 297 297 297 298 297 297 297 298 298 297 298 298 298 298 298 298 298 298 298 298 298 298 298 298 298 298
312 313 312 309 307 307 308 307 307 307 306 305 303 302 302 303 302 301 301 301 302 303 303 303 302 302 301 301 300 299 299 298 296 296 296 296 296 296 296 296 295 295 295 296 297 298 298 299 299 299 298 298 298 297 297 297 298 297 297 298 298 298 298 298 298 298 298 298 298 298 298 298 298 298 298 298 298 298 298 298 298 298 298 298 298
312 311 310 308 308 307 307 307 307 307 306 305 303 302 302 302 303 302 301 300 301 301 301 301 300 300 300 300 299 298 297 296 295 295 296 296 296 295 295 295 295 295 295 296 298 299 299 299 299 299 298 298 298 298 298 298 298 298 298 298 298 299 299 299 299 299 298 298 298 298 298 298 298 298 298 298 298 298 298 298 298 298 298 298 298
311 310 308 308 308 308 308 308 307 307 306 306 304 302 301 301 302 302 301 301 300 300 299 298 297 297 297 297 296 296 295 295 295 295 296 296 295 295 295 295 296 296 295 297 299 299 299 299 299 299 299 299 299 298 298 298 298 298 299 299 299 299 299 299 299 299 298 298 298 298 298 298 298 298 298 298 298 298 298 298 298 298 298 298 298
309 308 307 308 308 308 308 308 308 307 307 306 304 301 300 300 300 300 299 299 299 299 299 298 297 296 296 296 295 295 295 295 295 295 295 296 295 295 296 297 297 297 297 298 299 299 299 299 299 299 299 299 299 299 299 299 299 299 299 299 299 299 299 299 299 298 298 298 298 298 298 298 298 298 298 298 298 298 298 298 298 298 298 298 297
308 307 307 308 308 308 308 308 308 307 307 306 304 301 300 300 300 300 300 300 300 300 300 300 298 297 296 295 294 293 294 295 295 295 295 295 295 295 297 298 299 299 299 299 299 299 299 299 299 300 300 300 300 300 299 299 299 299 299 299 299 299 299 298 298 298 298 298 298 298 298 298 298 298 298 298 298 298 298 298 298 298 297 297 297
308 308 307 308 308 309 309 309 308 306 305 306 304 301 300 301 301 301 301 301 301 301 302 301 298 296 295 293 292 292 294 295 294 294 294 294 295 295 297 299 300 299 299 299 299 299 299 300 300 300 300 300 300 300 300 300 300 300 299 299 299 299 298 298 298 298 298 298 298 298 298 298 298 298 298 298 298 298 298 298 297 297 297 297 298
308 308 307 308 308 309 309 308 306 305 305 306 304 302 301 301 301 301 302 302 302 303 302 301 299 297 296 294 293 293 294 294 294 294 294 295 295 296 298 299 300 299 299 299 299 299 300 300 300 300 300 300 300 300 300 300 300 300 299 299 299 299 299 299 299 299 298 298 298 298 298 298 298 298 297 297 298 298 297 297 297 297 297 298 298
307 307 307 307 307 307 307 306 305 305 306 306 304 302 301 302 302 302 303 303 303 303 303 301 300 299 297 295 294 295 295 295 295 295 296 296 297 297 298 299 300 299 299 300 300 300 300 300 300 300 300 300 300 300 300 300 300 300 299 299 299 299 299 298 299 298 298 298 298 298 297 297 297 297 297 297 297 297 297 297 297 297 297 297 297
307 307 307 306 305 305 305 304 305 305 305 304 303 302 301 302 302 303 303 303 303 303 303 302 301 300 298 296 294 295 296 296 296 296 297 297 298 298 299 299 300 300 300 300 300 300 300 300 300 300 300 300 300 300 300 300 299 299 299 299 299 299 299 298 298 298 298 297 297 297 297 296 296 296 297 297 297 297 297 297 297 297 297 297 297
307 306 306 305 304 304 303 303 304 303 303 303 302 302 302 302 302 303 303 303 303 303 303 303 302 301 299 297 295 294 296 297 297 297 298 298 298 298 299 299 299 300 300 300 300 300 300 300 300 300 300 299 299 299 299 299 299 299 299 299 299 298 298 298 298 297 297 297 296 296 296 295 296 296 296 297 297 297 297 297 297 297 297 297 296
308 307 306 305 305 304 304 303 302 302 302 302 302 302 303 303 303 303 303 303 303 303 303 303 302 299 298 297 295 294 295 297 298 297 298 298 298 298 299 299 299 300 300 300 300 300 300 299 299 299 299 299 300 300 300 299 299 299 299 298 298 298 297 297 297 296 296 295 296 295 295 295 296 296 296 297 296 296 296 296 296 296 295 295 295
307 306 305 305 304 304 303 303 303 302 301 301 301 302 303 303 303 303 303 303 303 302 302 302 301 298 297 297 295 293 295 297 298 297 298 298 298 298 299 299 299 300 300 300 300 300 299 299 299 299 299 300 300 300 300 299 298 298 297 297 297 296 296 295 295 294 294 294 294 295 295 295 295 295 296 295 295 294 295 295 295 294 294 294 294
305 304 303 302 301 301 302 302 302 302 301 300 300 301 301 302 303 304 303 302 302 302 302 301 299 297 296 296 294 293 294 296 297 297 297 297 298 298 298 299 299 300 300 300 300 299 299 299 298 298 298 299 299 299 299 298 297 296 296 295 295 295 294 293 293 293 293 293 293 294 294 294 294 294 294 294 293 293 293 293 292 292 292 291 291
303 303 302 301 300 300 301 301 301 301 301 301 300 300 300 301 302 302 302 302 302 301 300 299 298 296 296 295 293 293 294 295 296 296 297 297 298 298 299 299 300 300 300 300 299 298 298 298 298 298 298 298 298 298 297 296 295 295 294 294 294 293 293 292 292 292 292 292 292 292 292 292 292 292 292 291 290 290 290 289 289 289 289 288 288
302 302 302 301 301 300 300 300 301 301 301 301 300 299 299 300 300 300 301 301 300 300 299 298 297 296 295 294 294 294 295 296 297 297 297 298 299 299 299 300 300 300 300 299 298 298 298 298 298 298 297 297 296 296 295 294 293 293 293 294 293 292 292 292 292 291 291 291 290 290 289 290 290 289 288 288 288 288 287 287 287 287 286 286 286
301 301 301 301 301 300 300 300 300 300 300 300 300 299 299 299 300 299 299 299 299 299 298 297 296 295 295 295 295 296 296 297 298 298 298 299 299 300 300 300 299 299 299 298 298 298 298 298 297 297 296 296 295 294 294 293 292 292 293 293 292 292 292 292 291 290 290 290 288 288 287 287 287 286 286 286 286 286 286 285 285 285 284 285 285
301 301 300 300 300 300 299 299 299 299 299 299 299 299 299 299 299 299 299 298 298 298 297 296 295 295 296 296 297 297 297 297 298 298 298 299 299 299 299 298 298 298 298 298 298 298 297 297 297 296 296 295 294 294 293 293 292 292 292 292 292 292 291 291 290 289 288 286 285 285 285 285 284 283 284 285 284 284 284 284 283 283 283 284 284
302 301 300 300 299 299 299 299 299 299 298 298 298 298 298 298 298 298 298 298 299 299 297 295 294 294 294 295 296 297 297 298 298 298 298 298 298 299 299 298 298 298 298 298 298 297 296 296 296 295 295 294 294 293 293 293 292 292 292 291 291 290 290 289 288 286 284 283 283 283 283 283 282 283 284 284 282 282 282 282 282 282 282 283 283
301 300 300 299 299 298 298 298 298 298 297 297 297 297 297 297 297 297 297 298 300 299 297 293 292 293 295 297 297 298 298 298 298 298 298 299 298 298 298 298 298 298 297 297 296 296 295 295 294 294 293 293 293 292 292 292 291 291 291 290 289 288 287 285 284 282 281 281 281 281 281 282 282 282 282 281 280 280 281 281 280 281 282 282 281
Wind_Speed
24 26 25 21 20 20 21 22 20 18 19 19 21 28 32 31 30 28 26 24 22 19 17 15 12 12 12 13 14 14 14 13 12 11 11 12 12 13 13 14 15 15 14 14 13 13 14 14 13 12 11 11 11 10 10 10 9 9 10 10 10 10 11 10 8 8 10 11 13 13 16 18 18 19 22 22 23 23 22 21 23 24 24 24 24
23 26 24 21 19 18 19 21 20 20 21 20 23 31 33 32 30 28 26 24 20 17 16 15 13 13 13 14 14 14 14 13 12 11 12 13 13 13 14 15 16 15 15 15 14 13 14 14 13 12 12 12 11 10 9 9 9 9 10 10 10 10 11 11 10 9 10 11 13 13 15 17 17 20 22 22 23 24 23 23 23 24 24 24 23
22 23 23 21 20 20 21 21 20 21 21 22 28 32 33 32 30 28 27 23 19 16 15 15 14 14 14 14 15 14 14 13 12 12 13 14 14 14 15 15 16 16 16 15 14 13 13 13 12 11 11 11 11 11 9 9 9 9 9 9 9 10 11 11 10 10 10 11 13 15 16 17 17 19 21 21 22 22 22 23 23 23 24 24 23
22 21 21 22 21 22 21 21 22 22 20 22 27 29 30 31 29 27 26 22 19 17 15 14 14 14 15 15 15 15 14 13 13 13 14 14 15 16 16 16 15 16 16 14 13 13 13 12 11 11 11 11 11 11 10 10 9 9 8 9 9 9 10 10 10 10 10 11 13 14 15 17 17 18 20 21 21 21 21 22 23 24 24 23 23
22 20 21 23 22 21 20 21 23 22 20 23 27 29 31 29 26 26 25 22 20 18 15 13 14 15 16 16 15 15 14 14 14 15 15 15 16 16 16 16 16 16 15 14 14 13 12 12 12 11 11 11 11 10 10 10 10 9 9 9 9 8 8 9 9 10 10 11 12 13 14 16 16 17 20 21 21 21 22 22 23 24 24 24 24
22 21 20 20 21 21 21 21 22 22 25 29 32 32 31 26 23 24 23 22 21 18 15 14 14 15 15 15 15 15 15 15 15 16 16 16 16 17 17 16 16 16 15 14 13 13 12 12 12 11 11 11 11 9 9 9 10 10 10 10 9 8 8 8 9 10 11 11 12 13 14 16 17 18 20 21 21 21 23 23 23 23 25 25 25
18 18 18 19 21 21 20 21 20 23 30 36 34 31 28 26 25 21 19 20 19 17 15 15 15 15 15 15 15 15 15 15 16 16 16 16 16 17 16 16 16 15 14 14 13 12 12 12 12 12 12 12 12 10 8 8 9 10 10 10 10 9 9 9 9 10 11 12 13 14 15 16 17 18 19 20 20 21 24 25 24 25 26 26 26
18 17 17 18 19 19 21 22 21 26 34 36 32 29 27 26 24 20 18 19 18 16 16 16 15 15 15 14 14 15 16 16 16 16 16 17 17 17 16 16 16 16 15 14 13 12 13 13 13 13 14 14 14 13 12 9 9 10 11 11 11 11 10 10 10 11 12 13 14 14 15 16 17 18 19 20 21 22 24 24 24 25 26 26 25
21 19 18 18 18 19 20 20 22 31 36 34 31 30 27 25 23 20 19 19 17 17 17 16 16 15 14 15 15 15 15 15 15 16 17 17 17 17 16 16 16 16 15 14 13 13 13 13 14 15 15 15 14 15 16 14 13 12 12 12 12 12 11 12 12 12 12 14 14 15 15 16 18 20 20 21 21 22 23 22 22 24 25 25 24
21 21 20 20 19 18 19 21 26 34 36 33 32 32 29 26 23 20 20 19 18 19 18 17 16 16 15 15 15 14 14 15 17 18 17 17 17 17 16 15 15 15 14 14 13 13 13 14 14 14 14 15 14 14 16 17 18 18 17 17 16 14 13 12 13 13 13 13 15 15 15 16 18 19 20 19 19 20 21 21 22 23 24 24 23
21 20 20 21 20 21 24 28 32 35 36 35 34 33 31 29 26 22 21 20 19 19 18 17 16 15 16 16 15 14 17 20 22 21 19 18 17 16 16 15 14 14 14 14 13 13 13 12 10 9 9 9 11 13 16 18 20 20 21 22 21 20 17 13 12 13 14 13 14 15 15 15 17 18 19 19 19 19 19 19 20 22 23 23 22
21 20 20 22 22 23 26 31 33 34 35 35 35 34 31 28 25 22 21 21 21 20 18 17 17 16 17 17 16 18 21 23 23 22 21 19 17 16 15 15 14 14 13 13 13 13 12 11 9 7 7 6 6 8 12 15 17 18 20 22 23 23 21 18 14 12 13 14 14 14 15 14 15 17 19 19 19 18 18 18 19 20 21 22 21
20 20 20 22 23 23 25 29 32 34 34 34 32 29 26 24 23 22 22 22 21 20 18 18 18 17 18 18 18 20 22 22 21 22 22 19 17 16 15 14 14 14 13 13 13 12 11 10 9 8 7 6 5 6 7 9 12 14 15 17 19 20 20 20 18 14 13 12 12 13 13 13 14 16 18 19 18 17 17 18 19 20 20 20 20
21 20 21 22 23 23 24 28 31 32 31 29 25 22 21 22 22 22 22 22 22 21 19 18 19 18 18 19 19 20 22 21 20 21 21 20 18 16 15 15 15 14 13 13 12 11 10 9 9 8 7 6 6 6 6 7 8 10 11 12 14 15 15 16 15 14 12 11 11 11 11 12 12 14 16 18 17 16 16 18 19 19 19 18 17
21 21 22 22 22 22 25 29 31 29 26 23 21 20 20 22 22 22 23 22 22 20 19 19 19 18 19 19 18 19 22 21 19 20 21 20 18 16 15 15 14 14 13 13 12 11 10 9 9 9 9 8 8 8 8 7 8 9 10 10 10 12 13 14 13 13 12 11 10 10 10 12 13 14 18 20 18 15 14 16 17 17 17 16 15
21 22 23 22 22 23 27 31 29 25 22 21 20 19 20 21 22 22 22 22 21 19 18 18 19 19 19 19 19 20 22 21 18 18 20 20 17 14 14 14 14 13 12 11 11 10 9 9 10 10 9 10 11 12 11 9 8 9 9 9 9 9 11 13 14 15 13 12 12 11 12 15 16 18 21 23 22 17 14 15 17 17 17 16 16
22 22 23 23 23 26 31 31 25 22 21 20 20 20 21 22 22 21 22 22 20 18 18 18 19 19 19 19 19 20 21 20 18 18 19 18 14 13 13 13 13 12 11 10 9 9 9 9 9 9 9 10 11 13 13 11 9 9 8 8 8 8 7 7 8 11 12 11 12 13 14 15 16 17 20 23 24 20 16 17 19 18 18 17 17
21 22 23 24 24 26 28 27 23 21 21 20 20 22 22 22 21 21 22 21 20 18 19 19 19 19 19 18 18 19 20 20 18 18 17 15 13 12 12 12 12 11 11 10 10 10 10 11 10 9 9 10 11 12 13 11 9 7 7 7 7 7 7 6 5 7 9 10 11 12 13 15 15 15 17 20 22 19 15 16 19 19 18 17 18
22 22 23 24 24 24 24 23 22 22 21 20 21 23 22 21 21 21 20 19 19 18 19 19 19 18 18 18 18 18 19 19 18 17 16 15 13 11 11 12 11 11 10 10 10 10 10 10 11 10 9 9 10 11 12 11 9 7 6 6 7 7 6 6 7 7 7 8 10 10 11 12 12 12 14 16 17 16 14 15 16 17 17 18 19
22 22 23 24 23 23 23 23 22 21 21 21 20 20 21 21 22 22 19 18 18 18 18 19 19 18 18 18 17 16 17 18 18 17 15 14 12 10 10 11 11 10 10 10 10 9 9 8 8 8 8 8 9 10 11 11 9 7 7 6 7 7 5 5 8 9 7 8 9 9 10 11 11 12 13 13 14 15 14 14 14 15 15 16 18
22 23 23 23 23 23 22 22 22 21 21 22 21 19 19 21 22 22 20 18 17 18 18 19 18 18 17 17 16 15 16 17 17 16 14 13 12 10 9 9 10 9 9 9 9 9 8 8 7 6 6 7 8 9 9 10 9 7 7 7 7 7 5 5 8 9 8 8 9 9 10 11 11 12 13 14 14 15 15 14 14 14 14 14 15
22 22 23 23 23 22 21 21 23 22 22 25 25 21 20 21 22 21 19 18 18 19 19 18 18 17 17 16 15 15 15 15 16 16 13 13 12 8 6 9 10 9 8 8 8 8 8 7 6 6 6 6 7 8 7 8 7 6 6 6 7 7 7 6 8 8 8 9 10 10 11 12 12 13 14 14 14 15 15 15 14 14 14 13 13
21 22 23 23 22 21 21 23 26 26 25 26 26 22 21 23 23 21 19 18 18 19 18 17 17 17 17 16 15 14 15 15 16 15 13 12 11 7 6 10 11 8 6 8 8 7 7 7 6 6 7 6 6 6 6 6 5 5 5 6 7 9 8 6 7 8 8 9 10 10 11 12 12 13 14 14 14 15 16 16 15 15 15 14 12
22 22 22 22 21 21 23 26 28 28 26 25 24 21 21 22 22 21 20 19 18 18 18 17 17 17 16 16 15 15 15 15 15 15 12 11 10 8 8 10 9 6 6 7 7 7 7 7 6 6 6 6 6 7 6 5 4 4 4 6 8 8 7 6 7 8 8 8 10 10 10 11 12 12 14 14 13 14 16 16 15 16 16 15 13
22 22 21 20 20 21 23 23 23 24 23 22 21 20 20 21 22 22 22 20 18 18 18 18 18 17 16 16 16 16 15 14 14 15 13 11 11 9 9 9 9 7 6 6 6 7 8 6 6 6 6 6 7 7 5 5 5 5 6 7 7 6 6 6 7 8 8 9 10 10 11 11 11 12 13 13 12 13 16 17 16 16 17 16 14
22 21 20 20 21 22 22 21 20 20 20 19 18 18 19 20 22 23 23 21 18 18 18 18 18 17 16 16 16 16 15 15 14 15 14 12 11 11 9 9 9 8 7 7 8 8 7 6 5 5 4 4 4 3 2 3 6 7 7 7 6 5 5 7 7 7 8 9 9 10 11 11 12 12 13 13 13 14 15 17 17 17 17 17 16
22 21 20 20 21 21 21 21 21 20 19 18 16 17 18 19 21 23 23 21 19 19 19 18 18 17 17 17 16 16 16 15 15 15 14 13 12 12 11 10 9 9 8 8 8 7 6 5 5 5 4 3 3 2 2 3 4 4 4 4 4 4 5 7 7 6 8 9 9 10 11 12 12 13 13 14 14 14 15 16 17 17 17 17 16
22 21 21 21 20 20 21 22 21 20 19 17 17 17 18 19 21 23 23 21 20 19 19 19 18 17 17 17 17 17 16 15 15 16 15 14 13 13 12 11 10 9 8 8 8 7 6 5 4 4 3 2 2 2 1 1 0 1 2 3 2 3 5 6 6 6 7 9 9 10 11 12 12 13 14 15 15 15 15 16 16 17 17 17 17
21 21 21 20 19 19 20 21 21 19 18 17 17 17 17 18 20 21 21 20 19 19 19 18 17 17 17 16 17 17 16 15 16 17 17 16 15 14 13 13 11 9 8 9 8 7 6 6 5 5 4 3 3 2 2 1 1 1 2 2 3 3 4 5 5 6 7 8 8 10 11 11 12 13 14 15 15 15 15 17 16 16 17 17 17
20 21 21 20 19 20 21 21 20 19 20 19 17 16 17 19 20 20 20 20 20 19 18 17 17 17 15 15 15 15 15 16 18 19 19 18 16 14 13 13 11 8 8 9 7 5 5 5 5 4 4 3 2 2 1 1 0 1 1 2 3 3 4 4 5 6 6 7 8 9 10 11 12 13 14 15 15 15 16 16 16 17 17 17 18
21 22 21 21 21 22 22 21 20 21 21 18 17 17 17 17 18 18 20 21 21 20 19 17 17 17 15 15 16 14 12 14 18 19 19 18 16 14 12 12 11 9 8 8 6 5 5 5 4 4 4 3 2 1 1 1 0 1 1 1 2 2 2 3 4 5 5 6 7 8 9 10 11 12 13 13 14 15 16 17 17 17 17 17 18
21 23 23 22 22 23 22 21 21 21 19 16 16 17 17 16 15 15 18 21 22 21 19 17 18 18 15 14 15 14 12 13 16 18 19 18 16 14 12 12 11 10 9 8 7 6 6 5 4 4 3 3 3 2 1 1 1 1 0 1 1 1 2 3 4 4 5 6 7 7 8 9 10 11 12 12 14 15 17 17 18 18 18 17 17
21 23 22 21 22 21 21 21 21 20 18 16 17 17 17 17 16 14 16 19 20 21 20 18 18 18 17 14 14 15 14 13 15 18 19 18 16 14 12 11 11 10 10 9 8 6 6 5 4 4 4 3 3 2 2 1 1 1 0 0 0 0 1 2 3 3 4 6 7 7 8 10 11 12 12 13 14 15 16 17 18 19 19 19 18
18 20 21 23 22 20 20 21 21 19 18 17 17 17 16 17 17 16 16 16 16 17 17 17 16 17 17 15 14 15 14 14 16 18 19 17 16 14 12 11 11 11 10 10 8 6 6 5 4 4 4 3 2 2 2 2 2 1 1 1 1 0 1 2 3 4 5 7 7 8 9 10 11 12 13 14 14 15 15 16 17 18 19 19 18
15 17 22 25 22 18 20 22 21 19 19 18 17 17 17 17 17 17 17 16 16 15 15 15 15 16 17 16 15 15 14 15 17 19 19 17 16 14 12 12 11 11 12 11 9 7 6 6 5 4 4 3 3 3 2 2 2 2 2 2 1 1 2 3 4 5 6 8 8 9 10 11 12 12 14 14 15 16 16 16 17 18 18 18 18
19 21 24 23 18 16 19 21 21 20 21 19 17 17 18 17 17 18 17 16 16 15 14 14 14 15 17 16 16 15 16 16 18 19 18 17 15 14 13 12 12 12 12 12 10 8 7 6 5 5 4 4 3 3 3 3 3 3 2 1 1 2 3 4 5 6 7 9 10 11 11 12 13 13 14 15 16 17 17 17 17 17 17 18 18
25 26 24 20 17 17 19 20 21 20 21 20 18 17 18 17 17 18 18 17 17 16 15 14 14 14 16 16 17 17 18 18 19 19 18 16 15 15 14 12 12 12 11 10 10 8 7 7 6 5 5 4 4 3 3 3 3 3 2 2 3 3 4 6 8 9 9 10 11 11 12 13 14 15 15 16 17 17 17 17 17 17 17 18 18
26 28 26 20 18 19 19 19 20 20 19 18 18 17 18 18 18 18 18 18 17 16 15 16 15 14 15 16 18 20 21 20 19 18 17 16 16 16 14 11 10 10 10 9 9 8 8 7 7 6 5 5 4 4 4 4 4 4 3 4 4 5 7 10 10 10 10 11 12 13 14 15 16 16 16 16 16 16 16 16 17 17 17 18 17
24 28 28 23 21 20 17 17 18 18 18 18 18 18 18 19 18 18 18 18 17 16 15 17 17 15 15 17 19 21 22 21 18 17 16 15 15 15 13 11 9 9 9 8 9 9 8 7 7 6 6 5 5 5 5 5 5 5 4 5 6 7 9 11 11 11 11 12 14 14 15 15 15 15 16 15 15 15 15 16 16 16 16 16 17
25 29 29 25 21 19 17 17 17 17 17 18 18 18 18 19 19 19 18 17 17 16 15 16 17 15 16 19 21 22 21 20 18 17 16 16 16 15 13 11 10 9 9 8 8 8 8 7 7 7 6 6 6 6 6 6 6 6 6 7 9 10 11 11 12 13 13 13 13 14 13 13 13 14 14 14 14 14 14 14 15 15 15 17 17
26 30 30 26 21 17 16 17 16 15 15 16 16 17 18 18 19 18 17 16 17 16 15 15 15 15 17 21 24 24 21 18 17 17 16 16 15 14 12 11 10 9 9 9 8 8 8 7 6 6 6 6 6 6 6 7 7 8 9 10 11 11 12 12 11 11 11 11 11 11 11 12 12 13 13 13 14 14 14 14 15 16 16 16 17
27 28 28 27 23 19 17 16 15 14 13 13 14 16 17 17 17 17 16 15 16 15 14 14 13 14 17 21 23 23 20 16 16 17 15 15 15 13 12 11 10 9 9 9 8 8 8 7 6 6 6 6 6 6 7 8 9 9 10 10 10 10 10 10 9 8 8 9 9 10 11 13 12 12 12 13 13 13 14 15 16 16 16 17 18
30 28 28 27 25 22 20 20 19 16 14 13 13 13 15 15 16 16 15 14 14 14 15 14 12 13 16 19 21 22 19 15 14 16 15 14 14 13 11 11 10 9 9 9 8 8 7 7 6 7 6 6 6 7 7 8 9 9 8 8 7 7 7 7 6 6 7 8 9 10 11 11 11 12 12 12 12 14 15 15 15 16 17 18 18
28 28 28 26 24 23 22 22 22 22 20 17 15 14 14 15 15 15 15 14 14 14 15 13 11 12 16 20 22 23 20 14 12 14 14 12 12 11 10 9 9 9 9 9 8 8 8 7 7 7 7 6 6 7 7 6 7 7 6 6 4 3 4 6 6 6 7 9 9 10 10 10 11 12 12 12 13 14 15 15 15 16 17 18 17
27 28 27 24 23 23 24 24 25 25 25 23 20 19 19 17 16 16 16 14 14 14 14 12 11 12 16 20 22 22 19 14 12 12 12 11 11 10 9 9 9 9 9 9 8 8 8 7 8 10 11 8 6 6 6 7 8 7 6 6 4 2 3 5 6 6 8 10 10 9 10 11 12 12 12 13 14 14 15 15 16 16 17 17 17
26 27 26 25 23 24 25 26 25 25 26 25 22 20 19 17 13 13 14 13 12 13 12 10 10 11 14 17 18 18 16 14 12 12 11 11 10 10 9 8 8 8 8 8 8 9 10 10 11 13 14 10 7 6 6 7 7 6 5 5 4 3 3 5 6 7 9 11 11 10 10 11 11 11 12 13 14 14 14 15 15 15 16 16 17
26 27 27 27 27 26 26 26 26 26 27 26 23 19 19 19 16 14 13 12 11 11 11 9 9 11 13 14 16 16 15 13 11 11 10 10 9 8 8 8 9 8 8 9 11 12 14 15 15 15 14 11 9 7 5 4 4 4 4 4 4 4 5 6 6 7 9 11 11 11 11 11 11 11 12 13 13 13 13 14 14 14 15 16 16
25 25 25 26 27 27 26 25 25 24 22 22 21 20 21 22 21 17 14 13 12 11 10 10 10 11 12 13 14 13 13 12 10 9 8 8 7 8 9 10 10 10 11 13 15 15 15 15 14 13 11 9 8 7 6 5 4 4 4 4 4 5 6 7 7 8 10 11 11 9 9 9 10 11 11 11 11 12 13 13 13 14 15 15 15
24 24 23 22 23 25 25 25 25 22 18 18 19 20 21 22 22 19 17 17 15 13 12 12 13 14 14 14 14 13 13 12 11 10 9 7 7 8 10 11 11 12 14 16 16 15 14 13 12 10 9 9 8 8 7 5 4 3 3 5 5 6 8 9 9 10 11 11 9 7 7 8 9 10 10 9 10 11 12 12 13 14 14 14 14
23 23 24 23 23 23 24 25 25 22 18 17 19 20 20 22 22 21 20 20 19 17 16 17 18 19 19 18 16 15 13 12 11 11 9 8 8 9 11 12 13 14 16 15 14 13 12 11 10 10 9 9 7 6 5 3 2 3 4 5 6 7 8 9 10 11 11 10 8 6 7 8 8 9 8 8 9 10 11 11 12 13 13 13 13
20 20 20 20 20 19 20 21 20 17 15 15 16 16 17 19 20 20 21 21 20 20 19 20 20 21 19 17 15 14 12 12 12 10 9 9 10 11 12 13 14 15 15 13 12 12 11 11 11 10 9 7 6 4 3 2 2 3 4 5 6 7 9 9 10 11 11 9 7 6 6 7 7 7 7 8 10 10 10 10 11 12 11 12 12
Wind_Direction
166 161 162 169 169 164 162 171 180 179 175 174 167 166 170 170 167 161 154 151 147 142 139 137 139 141 141 142 140 136 134 131 128 124 117 112 110 109 107 105 103 102 101 99 95 92 88 85 80 75 72 70 67 62 56 47 40 35 26 22 23 19 13 11 9 6 10 9 1 358 0 360 1 4 2 359 357 357 357 358 359 357 355 353 351
155 151 158 165 164 158 153 159 169 170 170 169 163 166 169 167 163 157 153 149 143 139 139 138 141 142 142 143 140 136 134 131 127 124 120 116 113 111 110 108 107 106 104 100 96 92 89 84 79 73 68 66 62 58 52 46 40 35 31 27 24 23 18 14 13 9 8 10 5 4 7 5 4 5 4 360 357 357 357 360 0 359 356 354 353
144 149 163 166 165 167 159 155 161 162 162 162 162 163 163 162 160 155 151 146 139 139 139 139 142 144 144 143 139 138 134 130 127 124 122 120 117 114 113 111 110 108 104 101 97 93 88 82 76 70 67 64 61 56 49 43 40 35 32 31 27 25 23 19 16 11 8 11 10 7 8 7 6 6 4 0 358 357 358 0 359 357 357 355 354
151 155 164 166 168 170 161 156 161 159 155 156 156 155 157 158 157 153 149 142 137 139 137 138 143 145 146 144 140 139 135 131 128 125 123 123 119 117 115 112 109 106 103 100 97 91 86 81 75 70 68 65 60 56 50 42 39 33 29 29 29 28 27 24 22 17 14 13 12 10 9 7 6 5 3 1 360 359 358 359 359 358 357 356 355
157 158 162 165 165 161 155 156 158 153 146 149 153 155 158 158 155 152 147 141 139 138 136 140 146 147 147 145 142 139 134 131 129 126 125 123 119 117 114 112 108 105 102 99 94 90 85 80 75 71 68 65 60 54 47 40 36 33 28 26 26 27 29 27 24 24 22 17 13 13 14 10 6 6 5 2 1 0 358 357 359 360 358 357 356
158 160 161 160 159 156 152 152 151 147 148 154 159 160 159 155 152 150 146 142 140 138 140 147 149 147 145 142 140 136 132 131 130 128 126 122 119 116 113 111 108 105 102 97 94 90 85 81 76 71 65 60 55 47 42 38 34 30 26 23 23 25 30 29 28 28 27 23 16 13 14 12 6 4 4 3 1 1 358 354 356 360 360 358 357
154 156 156 155 157 156 151 148 147 148 154 158 160 160 157 155 152 147 143 142 140 139 145 149 146 143 140 137 136 133 131 131 131 129 126 123 120 117 114 112 108 104 102 99 96 92 86 82 76 70 64 59 52 41 37 36 34 32 28 24 22 27 33 32 31 33 30 25 20 16 13 11 7 2 0 1 2 3 1 356 354 357 358 357 356
149 148 150 153 155 154 150 148 147 151 155 157 157 156 156 155 153 147 144 142 140 142 146 145 141 139 136 134 133 132 132 132 132 130 127 124 121 117 115 113 110 107 104 100 97 93 89 85 79 74 70 65 57 48 45 44 39 34 30 27 27 31 37 36 33 34 33 26 21 17 13 9 7 3 0 2 4 3 2 359 354 354 355 355 355
150 144 146 150 152 150 147 143 145 151 155 156 156 156 156 155 152 148 146 143 142 146 147 141 137 136 134 133 132 133 133 133 134 133 128 125 122 119 118 115 112 110 106 103 100 95 93 90 85 81 75 68 59 51 50 55 57 49 37 33 33 34 38 38 35 32 31 28 22 16 13 11 7 2 2 4 2 358 358 358 356 355 354 353 355
149 143 146 151 149 147 145 143 146 153 157 158 159 159 158 157 153 148 146 146 146 148 146 140 138 136 135 135 134 134 135 136 138 135 130 127 124 121 120 117 114 112 108 105 103 100 100 98 92 83 75 68 60 51 51 57 60 58 53 49 47 44 40 39 37 33 30 29 24 17 13 10 6 3 360 359 356 353 354 356 356 356 355 353 354
148 145 144 146 146 146 148 150 151 155 158 160 161 162 161 160 155 147 145 147 147 147 143 139 138 137 137 137 134 134 137 140 140 134 129 127 125 123 122 119 115 113 108 107 106 106 107 105 98 88 79 74 63 52 52 56 58 57 55 55 54 51 47 43 38 32 30 31 27 21 15 8 5 3 359 354 352 351 352 353 354 355 356 356 354
148 145 141 143 146 147 150 153 153 154 156 158 161 163 162 158 153 148 147 149 148 145 142 139 138 138 136 134 131 133 138 141 139 133 128 126 125 124 122 119 116 112 109 108 108 109 108 105 101 96 92 93 84 62 53 52 53 52 51 51 53 53 53 54 50 37 29 29 28 24 16 8 6 5 360 353 348 348 350 352 353 353 353 355 355
149 145 143 147 148 145 147 152 153 154 156 158 159 158 155 151 150 150 149 149 148 146 142 138 137 137 135 131 129 133 138 140 138 134 129 125 125 122 119 117 114 110 109 109 109 110 110 109 105 98 88 86 88 82 68 58 54 51 48 47 48 48 51 54 55 49 38 31 31 28 18 10 9 6 360 352 346 346 350 351 351 350 348 351 352
151 147 147 150 148 143 144 149 153 155 156 157 153 148 147 149 150 150 148 147 149 147 141 138 138 136 133 130 130 134 139 140 138 136 131 126 124 120 116 114 111 107 107 107 107 108 108 109 106 96 82 77 84 86 76 72 71 64 58 55 51 47 45 45 46 46 42 37 35 30 22 17 13 6 1 357 351 346 345 345 344 342 340 342 344
150 149 150 152 149 143 144 150 154 154 153 152 147 144 146 149 150 149 148 148 148 145 141 138 137 135 134 133 132 137 142 141 139 138 133 126 121 117 114 113 110 108 106 104 104 106 105 104 102 93 78 76 96 104 87 74 75 71 67 63 59 56 52 50 52 52 50 47 44 38 32 31 29 20 14 11 3 349 339 341 340 336 336 340 344
151 152 152 154 151 148 151 153 152 151 149 148 146 145 147 150 151 151 149 148 146 144 140 138 138 137 137 136 135 139 145 145 142 141 134 124 118 117 117 114 112 111 109 107 106 105 103 101 98 96 84 76 90 100 92 79 73 67 65 62 61 62 55 52 56 59 60 59 53 47 39 32 29 24 19 16 12 359 346 347 348 343 344 349 351
154 154 154 155 154 153 155 153 149 148 149 149 148 149 151 152 153 152 150 149 147 143 140 140 141 140 139 139 139 142 147 149 147 144 136 124 120 124 122 118 117 114 111 111 107 103 107 106 99 95 88 81 87 92 87 80 71 67 67 61 59 61 52 41 38 38 41 41 35 30 24 18 15 14 10 10 11 6 356 355 355 351 351 353 352
157 156 154 153 153 153 154 152 148 150 152 152 151 153 154 154 154 154 152 149 145 143 142 142 142 142 142 142 142 144 149 151 150 148 141 130 128 132 128 123 121 119 116 116 109 103 109 113 108 103 93 85 85 88 86 78 67 64 66 61 57 55 44 31 13 3 7 10 8 6 7 6 7 8 4 4 7 5 358 354 353 353 355 356 352
161 159 155 154 155 155 154 153 152 155 159 157 152 152 154 154 154 153 151 146 143 143 144 144 144 144 144 144 143 144 148 151 152 152 149 141 136 137 135 131 129 128 127 124 118 111 108 106 104 103 96 84 78 81 86 82 69 55 54 56 53 44 31 22 14 3 355 355 354 352 356 359 2 3 1 1 3 2 357 352 350 351 354 355 355
162 159 157 159 161 159 156 155 156 158 158 153 147 148 150 150 152 153 150 145 144 144 145 145 145 145 145 145 145 145 148 152 154 155 155 151 144 140 141 141 139 138 136 132 131 128 118 107 101 98 93 84 75 72 76 80 73 52 44 52 43 27 16 3 0 356 346 343 345 347 352 356 356 360 0 0 1 360 356 353 351 349 348 349 354
161 159 159 162 162 158 155 155 155 153 151 149 146 144 144 146 151 155 153 148 145 146 147 148 147 147 147 148 147 147 150 155 158 158 159 159 151 142 145 149 147 146 145 141 138 136 129 119 110 101 95 85 75 69 66 70 73 59 47 51 40 26 20 354 345 348 345 346 349 353 356 357 357 360 359 358 360 358 354 353 351 348 346 345 346
161 160 160 160 159 156 154 154 153 152 154 155 152 145 141 147 153 156 154 149 147 147 149 150 149 149 150 151 150 149 152 158 162 163 163 164 158 147 148 157 153 147 147 144 136 132 128 122 115 106 97 85 75 69 60 59 64 58 45 41 33 33 31 359 343 349 353 354 356 356 358 358 358 358 357 355 356 355 351 350 348 346 346 344 340
159 160 159 156 153 150 152 156 160 161 161 159 154 146 143 148 153 156 156 152 148 150 152 152 151 151 153 156 155 153 155 163 168 169 168 169 168 160 153 156 153 145 146 146 137 131 128 123 116 102 89 80 72 66 59 56 52 37 31 35 35 34 26 359 348 354 353 355 357 357 358 358 355 355 355 352 350 349 349 347 346 345 345 344 339
158 159 157 150 146 148 155 161 164 165 162 158 152 147 147 151 155 159 161 158 154 154 155 156 155 156 157 159 159 159 160 167 173 174 172 172 173 170 163 160 154 142 140 141 136 135 136 130 118 101 89 80 72 62 55 53 48 26 25 41 41 29 12 356 357 357 353 356 359 357 357 356 353 351 349 343 341 345 348 347 345 346 347 344 340
160 160 154 147 145 149 155 158 159 159 158 156 152 149 152 157 161 163 163 162 160 159 160 161 161 162 162 160 161 162 162 165 173 177 177 174 171 170 167 164 158 146 137 138 139 140 138 127 109 98 92 79 67 56 38 32 42 42 45 50 43 19 0 0 2 358 357 359 358 354 353 351 348 345 342 338 339 345 349 348 346 347 349 345 343
161 159 152 148 150 152 153 153 153 153 154 155 154 154 156 160 164 166 167 168 167 166 166 168 167 168 167 165 163 164 163 164 170 176 179 177 175 173 168 163 161 154 142 139 140 137 133 124 106 98 101 92 80 78 57 40 41 37 39 45 35 14 9 8 1 357 0 358 352 350 350 345 343 343 341 340 344 347 348 348 347 348 350 347 346
161 155 148 148 152 155 155 154 154 154 155 158 159 160 161 164 167 170 172 172 172 171 171 173 173 172 171 169 166 166 167 168 169 174 178 178 177 177 173 166 162 159 154 151 149 145 138 127 111 105 111 109 111 126 100 50 31 17 18 30 26 16 16 13 7 3 358 353 348 349 348 344 344 345 345 346 347 346 347 346 345 347 348 346 347
158 151 148 150 153 155 155 155 155 156 158 161 163 165 168 169 172 175 176 176 175 175 175 176 176 174 173 171 169 169 172 174 173 175 177 176 175 176 176 174 173 173 169 163 158 158 160 151 138 138 144 144 157 162 142 108 61 20 18 15 8 358 357 2 7 6 356 350 349 349 348 347 349 349 348 349 348 348 350 349 346 346 347 347 350
152 149 150 153 153 153 155 157 158 158 160 164 167 170 172 173 174 176 179 181 180 178 177 177 177 175 173 172 172 174 176 178 178 178 178 177 175 175 176 177 181 184 175 165 160 165 177 181 177 176 177 177 179 171 147 142 155 74 41 14 4 3 358 1 10 9 359 353 351 351 350 350 351 351 352 352 351 350 353 353 349 350 351 352 354
150 154 158 160 158 156 158 160 162 164 167 169 168 165 167 171 173 175 180 183 182 180 179 177 175 174 171 170 174 178 180 182 183 180 180 180 178 177 178 179 180 179 170 168 173 185 190 186 180 180 181 171 159 149 126 87 4 20 35 18 16 14 9 11 16 9 360 354 351 351 351 351 353 355 356 354 351 352 356 355 353 354 355 356 357
157 163 167 167 163 160 161 163 166 170 172 170 164 159 159 163 167 173 181 183 181 180 180 175 172 172 170 169 175 179 180 184 187 185 183 184 183 181 181 182 183 179 173 178 191 194 188 186 180 177 181 172 157 166 178 171 279 322 346 12 20 13 6 13 12 0 354 355 353 350 350 352 353 354 353 350 348 351 355 356 356 356 355 355 355
162 170 174 169 163 163 165 166 170 173 171 167 163 161 160 158 159 167 178 182 183 183 182 178 175 175 172 167 172 179 181 184 188 186 184 184 185 184 182 182 183 180 179 194 210 201 187 187 181 171 175 176 170 183 206 215 228 255 289 3 17 14 22 22 8 353 352 353 347 342 343 345 344 341 341 342 344 348 352 352 354 355 352 349 349
161 169 171 163 159 164 167 168 171 173 170 167 167 166 166 166 163 161 168 178 184 187 187 187 186 186 184 178 177 185 191 190 186 184 182 182 183 183 183 184 184 181 183 202 217 205 187 189 182 172 176 181 178 184 198 211 227 248 236 205 192 65 37 5 338 332 339 334 328 331 335 334 332 332 333 336 338 341 342 343 346 349 348 344 343
157 163 164 159 160 167 170 170 172 173 170 170 170 170 170 171 168 162 162 170 178 184 189 194 195 195 198 198 195 197 200 195 188 185 184 183 183 185 188 190 190 189 196 210 219 205 191 191 187 179 181 179 172 177 195 209 215 211 202 202 197 135 335 320 318 328 337 330 326 331 331 327 325 327 327 328 330 330 331 333 335 339 340 337 334
161 167 167 164 165 170 173 173 173 172 171 172 171 171 171 168 167 167 167 169 172 175 182 190 194 196 197 198 200 201 200 196 192 189 186 185 186 190 195 197 196 196 203 214 219 208 195 191 187 184 186 183 176 182 197 207 205 197 193 193 205 279 295 310 321 326 327 323 322 323 320 316 318 321 321 321 323 324 325 326 327 327 328 327 325
167 169 168 167 168 170 173 176 176 176 176 176 172 170 169 165 164 166 166 166 168 171 171 174 183 191 193 194 197 197 195 194 193 190 188 189 193 196 198 198 197 198 201 208 210 204 198 194 191 188 186 181 183 189 193 197 200 198 194 206 254 288 300 312 318 315 312 312 312 311 309 309 313 315 315 315 317 318 318 320 320 318 317 316 315
169 168 168 168 171 171 174 179 180 178 177 176 173 170 168 166 165 166 166 166 169 171 167 164 168 178 185 191 194 190 186 187 189 189 190 194 199 204 207 205 201 199 200 200 199 194 192 190 187 186 186 184 187 195 195 199 206 202 205 236 264 286 296 298 297 296 298 301 303 305 308 311 313 314 313 312 313 313 313 314 315 313 312 311 309
173 172 171 170 171 173 178 182 178 172 171 175 176 172 170 169 169 169 169 170 172 173 169 164 166 172 176 181 185 182 179 180 184 188 194 200 203 208 214 215 208 202 200 196 191 189 189 187 184 186 189 186 189 196 200 209 222 224 233 257 274 285 288 287 286 286 288 294 301 308 312 314 315 316 316 313 311 310 311 311 312 311 311 311 311
175 175 176 176 175 176 177 175 171 170 173 178 179 176 173 173 173 174 175 174 175 178 173 169 173 178 174 171 174 175 176 178 182 186 193 199 202 207 212 214 209 205 203 196 190 192 195 193 188 189 194 194 198 209 216 225 238 246 257 272 279 284 288 289 292 297 298 300 305 310 312 313 314 315 315 313 312 312 311 311 309 309 309 310 311
177 179 179 178 177 175 171 168 168 172 178 182 182 178 177 177 179 180 179 177 178 182 179 175 179 182 173 168 170 173 175 179 183 186 191 196 199 203 206 206 204 204 204 200 196 198 202 202 198 199 204 206 210 220 230 239 251 259 267 275 281 284 288 291 295 298 300 302 306 310 312 313 315 315 313 313 314 313 310 309 309 309 309 310 310
178 181 181 179 177 174 171 169 172 174 176 181 183 181 180 182 184 186 184 181 182 184 183 182 185 182 175 174 177 177 177 181 186 188 191 195 197 200 202 202 203 203 202 203 204 203 206 211 211 210 212 217 223 234 243 252 261 269 273 278 282 285 288 291 293 295 299 304 307 309 312 315 316 316 313 312 313 313 311 312 313 314 313 314 315
183 184 183 180 178 176 172 171 173 174 175 179 184 186 185 185 188 190 189 186 185 185 187 188 185 177 178 184 187 183 181 185 189 191 192 194 196 199 199 200 204 206 206 208 211 211 211 218 222 223 226 230 234 244 255 261 267 273 276 280 284 287 291 297 300 300 304 308 309 311 317 322 322 318 315 313 314 315 316 317 316 316 317 318 319
189 188 187 186 185 185 183 180 178 178 178 180 183 187 189 191 193 194 192 191 190 188 189 189 179 168 177 190 192 188 187 190 191 192 193 194 195 198 201 202 207 212 214 217 219 218 218 222 226 228 234 238 244 253 262 267 270 275 279 284 289 291 293 300 308 312 315 317 319 321 324 326 324 320 318 319 320 320 319 317 317 318 319 319 318
186 187 187 187 187 188 188 187 187 188 191 192 189 187 190 196 199 198 196 194 194 192 191 189 175 166 179 190 191 189 193 196 193 192 195 196 196 199 204 208 212 217 220 223 224 223 226 230 233 239 244 249 255 262 267 268 270 277 282 284 289 297 298 300 307 318 324 329 332 330 328 327 325 322 323 324 323 322 320 319 319 319 318 318 318
182 184 183 181 182 183 184 187 189 192 195 196 194 193 195 199 201 202 200 197 195 194 193 185 169 168 183 190 189 190 197 201 198 196 196 196 198 202 206 212 219 222 223 222 221 223 229 233 241 250 254 252 250 256 260 262 267 274 279 282 280 275 286 300 314 327 332 337 340 335 329 328 327 326 325 324 324 322 321 320 320 320 319 319 320
183 183 182 181 181 182 184 186 188 190 195 197 196 195 197 196 194 195 196 192 189 189 186 175 165 171 182 185 185 189 196 199 200 198 195 194 199 203 206 214 221 222 220 219 222 229 235 237 242 250 254 250 242 242 253 265 271 269 263 266 268 266 287 315 334 338 334 336 338 336 330 329 327 325 324 325 323 322 321 321 321 321 322 321 319
184 184 185 186 185 184 187 189 190 193 197 198 196 196 198 197 192 189 188 184 180 179 177 174 173 177 180 182 185 190 194 194 192 191 193 200 210 213 215 223 227 221 218 224 229 234 239 242 244 250 253 250 240 230 225 232 249 253 256 269 288 306 318 331 340 335 330 334 338 336 331 329 327 324 325 327 325 324 324 324 323 324 324 322 320
186 184 185 187 187 186 187 190 191 191 193 194 195 198 201 200 197 193 188 183 179 175 174 175 176 176 178 182 184 187 189 191 191 193 201 213 221 221 222 227 226 221 223 230 234 236 241 246 247 248 246 237 222 208 197 194 209 243 277 301 315 322 328 334 336 333 333 337 340 336 329 327 327 327 328 329 328 327 327 326 326 326 325 322 322
190 187 186 186 187 187 187 188 189 189 189 193 197 201 203 202 200 197 193 191 188 182 176 174 175 177 179 180 180 182 188 194 202 210 215 214 208 212 221 224 222 220 226 233 235 237 239 240 236 227 216 207 199 194 195 202 219 256 293 311 320 326 333 337 337 335 337 342 344 338 331 329 331 332 332 332 331 331 329 327 327 327 325 323 324
192 191 191 191 190 190 190 190 190 190 191 195 200 202 203 203 202 200 198 196 194 191 189 187 185 185 185 184 185 189 195 202 209 216 215 207 202 211 221 224 223 225 230 233 233 229 223 216 208 199 193 190 190 192 198 215 245 275 296 315 327 332 335 337 337 337 342 349 352 346 338 336 338 340 339 337 336 334 332 330 330 329 327 327 330
188 188 189 188 187 187 188 187 185 184 188 194 197 199 201 203 202 201 200 199 196 196 196 193 188 185 184 186 191 197 203 207 210 208 202 201 208 218 224 227 228 229 230 226 219 209 199 191 187 185 182 182 187 195 208 233 268 295 314 329 336 335 336 340 342 344 350 358 359 350 345 346 348 347 343 339 340 339 335 333 334 333 330 331 334